Theta_e
302 291 288 287 287 290 292 291 291 291 292 292 291 289 286 286 287 290 290 293 294 289 289 290 289 287 287 287 288 288 289 288 287 287 287 287 287 287 287 287 288 288 288 290 290 290 290 290 290 290 289 289 289 289 289 288 288 288 289 290 290 291 291 291 290 290 290 289 289 289 288 289 291 292 294 294 294 295 295 296 298 297 296 296 296 296
299 289 287 290 290 290 291 292 292 293 293 291 289 286 285 287 284 288 289 293 295 288 286 291 288 287 287 287 287 288 288 286 286 286 286 286 287 287 287 287 287 287 290 290 289 289 289 289 289 289 288 288 287 287 287 288 288 288 288 289 290 291 290 290 290 290 290 290 289 288 288 288 288 289 291 292 294 294 294 295 295 296 297 297 297 296
290 286 290 291 291 291 293 293 293 290 291 292 286 285 284 284 287 290 291 293 291 290 288 291 288 288 287 286 287 287 286 286 287 287 286 286 286 286 287 287 287 287 287 288 288 288 288 288 288 288 287 287 287 287 287 288 288 288 288 289 290 290 291 290 290 290 289 289 289 288 288 288 288 289 289 290 293 294 295 295 296 296 296 296 296 296
287 289 291 294 291 291 293 293 293 293 291 287 285 283 281 285 283 281 288 291 292 289 287 289 286 288 286 287 287 287 287 286 287 287 287 288 286 286 286 287 286 286 287 286 287 287 287 287 287 286 286 287 287 286 286 287 287 287 288 289 289 290 290 290 290 290 290 289 289 288 288 288 288 287 289 288 290 293 293 294 295 295 295 296 296 296
287 291 294 293 292 291 290 292 290 288 287 290 287 283 282 283 284 284 285 289 290 290 290 287 286 287 285 284 284 286 287 286 287 287 287 287 288 288 288 288 287 286 286 286 286 286 286 286 286 286 286 287 286 286 286 287 287 287 288 289 290 289 289 290 290 289 289 289 288 288 288 288 287 288 287 287 287 288 291 293 293 293 294 295 294 295
291 293 293 293 290 291 291 288 289 288 286 287 286 285 285 285 285 286 287 286 285 284 287 286 279 280 286 285 285 285 285 285 286 286 286 286 287 287 286 286 287 287 288 287 286 286 285 285 285 286 285 285 285 286 286 287 287 288 288 288 289 289 288 289 290 289 289 288 287 286 285 283 284 283 284 284 285 286 287 288 291 292 293 294 293 293
291 293 293 291 290 291 290 289 289 289 285 285 284 288 287 286 286 286 286 284 280 279 284 287 279 275 285 284 286 285 285 284 285 285 286 286 286 287 286 287 287 286 286 287 286 286 285 284 284 285 285 285 285 286 287 287 287 288 288 288 288 288 288 288 289 289 289 287 287 286 285 285 284 284 285 286 286 287 288 289 289 290 291 292 292 293
293 294 292 292 291 289 287 285 289 288 285 284 289 288 288 287 285 285 284 284 282 287 288 287 285 277 277 284 287 285 284 284 284 285 285 286 286 286 286 287 287 287 286 286 285 285 285 284 283 283 284 285 285 286 287 286 287 287 287 288 288 288 288 289 289 289 288 287 287 286 286 286 285 284 284 286 286 287 288 288 289 290 290 291 291 290
290 291 290 289 290 287 285 287 289 290 285 286 289 290 288 287 287 286 284 283 284 283 281 283 285 277 277 283 285 285 282 283 283 284 285 286 286 286 286 286 286 286 285 285 284 283 283 283 284 284 284 285 286 286 286 286 286 287 287 287 288 288 288 288 288 288 287 287 286 286 285 285 286 286 286 287 288 287 288 288 288 288 289 289 290 290
293 292 292 291 289 285 288 289 290 289 286 288 290 291 290 290 288 287 283 282 283 280 277 281 283 275 276 281 282 282 282 283 282 284 285 286 285 285 285 286 286 285 284 284 283 283 283 283 284 285 285 285 285 286 286 286 287 287 287 287 287 287 288 288 287 287 287 286 286 285 285 285 285 286 286 287 286 286 287 286 287 287 288 289 289 290
291 295 295 294 288 288 289 290 290 290 290 293 292 289 286 287 285 286 285 283 281 276 278 281 281 279 272 280 282 282 282 281 282 283 285 285 285 285 285 284 283 283 283 282 282 283 283 284 284 285 284 285 285 286 286 286 286 286 286 287 286 286 287 287 286 286 286 286 286 285 285 285 285 285 285 285 285 286 286 286 286 286 287 288 288 289
292 292 293 291 293 291 293 290 292 292 292 290 286 284 284 284 285 283 283 284 276 274 280 281 281 281 272 277 283 281 281 282 281 281 282 283 284 283 283 283 283 282 282 282 282 282 282 283 284 284 284 284 285 285 285 286 286 286 286 286 285 286 286 286 286 286 285 285 285 285 285 284 285 285 284 284 284 285 285 285 286 287 287 287 288 288
288 287 288 291 292 289 289 288 292 289 291 288 285 284 278 276 277 273 278 273 274 273 279 281 281 277 277 280 283 282 282 282 283 284 283 283 282 282 282 282 282 282 281 281 281 281 282 282 282 283 283 283 284 284 284 285 285 285 285 285 284 284 285 285 285 285 285 285 285 285 285 285 285 285 285 284 284 285 285 285 286 286 286 287 287 287
286 289 290 289 289 291 290 283 283 283 286 285 282 279 276 272 271 269 273 276 275 278 281 280 282 275 280 281 283 283 284 284 284 284 284 283 282 282 281 281 281 281 281 281 281 282 282 282 282 283 282 283 283 283 284 284 284 284 284 284 283 283 284 284 284 284 284 284 284 284 285 285 285 284 285 284 284 285 285 286 285 286 286 286 286 287
280 281 285 287 283 290 288 286 286 284 285 284 286 282 277 276 271 267 272 269 270 273 277 281 277 274 273 279 283 285 285 286 286 285 285 284 283 282 282 281 280 280 280 281 281 281 282 282 282 282 283 282 282 283 283 283 283 283 283 283 283 282 283 283 284 284 283 283 284 284 284 285 285 284 285 285 285 285 285 285 285 286 286 286 286 287
282 282 287 289 288 289 286 288 289 287 285 285 286 285 279 276 280 273 275 274 273 272 272 276 276 278 278 284 286 284 286 286 286 285 284 283 282 282 281 280 279 280 280 280 281 281 282 282 282 282 282 282 282 282 283 283 283 282 282 282 282 282 283 283 283 283 283 283 283 284 284 284 285 285 285 285 285 285 286 286 286 285 286 286 286 287
282 281 287 289 287 286 287 288 288 290 276 282 283 277 278 283 280 276 278 279 277 275 272 278 276 279 283 284 282 285 284 284 284 283 282 281 281 280 279 279 279 279 279 280 281 281 281 282 282 282 282 281 282 282 282 282 282 282 282 282 282 282 283 283 283 284 284 284 284 284 284 284 285 284 284 284 285 285 286 286 286 286 286 287 287 286
279 280 289 287 284 287 288 289 289 289 288 284 278 279 285 286 282 278 270 272 272 268 270 275 272 272 274 271 282 282 280 281 281 280 280 280 279 278 278 278 278 279 280 280 281 281 281 281 281 281 282 282 282 282 281 281 282 282 282 282 282 282 282 283 283 283 284 283 284 284 284 285 285 285 285 285 284 285 285 285 286 286 286 286 286 287
284 279 286 285 286 286 287 288 286 288 290 283 280 286 278 272 273 278 274 266 266 265 268 271 273 273 274 273 279 278 278 278 278 279 278 278 277 277 277 277 278 279 279 279 279 280 280 280 280 281 281 282 282 281 281 281 282 282 282 282 282 282 282 283 283 283 283 283 283 283 283 284 284 284 284 284 284 284 284 284 284 285 285 286 286 286
286 278 282 285 285 286 284 286 279 281 286 288 288 283 285 281 276 272 274 272 273 267 266 267 271 269 276 276 278 278 279 278 278 278 277 276 277 277 276 277 277 278 278 279 279 280 280 280 280 281 281 280 280 280 281 281 281 281 282 282 282 282 282 282 281 282 282 282 281 282 283 283 284 284 284 284 284 284 284 284 284 284 284 285 285 285
283 285 276 284 288 288 281 283 280 281 279 281 281 279 279 280 281 278 278 273 271 267 267 266 265 270 276 280 280 279 279 278 277 276 276 276 277 277 277 277 277 278 278 279 279 279 279 280 280 280 280 281 280 281 281 281 281 281 281 281 281 279 279 279 279 279 280 281 281 280 280 282 283 283 283 284 284 284 284 284 284 284 285 285 285 285
283 283 278 281 282 281 281 283 282 283 283 281 280 277 277 275 272 270 268 279 273 269 266 265 264 271 278 282 281 280 279 278 278 277 276 276 276 277 277 277 278 278 278 279 279 279 279 279 279 280 280 280 279 280 280 280 280 280 280 280 279 279 278 278 278 279 279 280 280 280 281 281 282 282 283 282 283 283 283 283 284 284 284 284 284 285
284 283 281 278 281 282 281 283 284 285 284 282 281 278 280 279 277 272 266 269 273 273 273 271 267 269 280 282 281 280 279 278 278 277 276 277 276 277 277 277 278 278 278 279 279 279 279 279 279 279 279 279 279 279 279 279 279 279 278 278 278 277 277 278 278 279 280 280 280 280 280 281 281 281 281 281 282 282 283 283 283 284 284 284 284 285
284 281 278 280 283 282 283 284 284 284 284 280 280 281 279 275 275 274 273 274 270 270 269 268 266 270 279 282 280 280 279 278 278 277 276 276 276 277 277 277 277 277 278 279 279 279 279 279 279 278 278 278 278 278 278 278 278 278 277 277 276 276 277 277 277 278 278 279 279 279 280 280 281 280 280 280 281 282 282 283 283 283 283 283 284 284
281 282 280 276 276 279 280 280 280 280 281 281 279 278 278 278 277 275 273 273 269 271 271 267 262 267 277 280 279 278 278 277 276 277 277 275 276 276 276 276 277 277 278 278 278 278 278 278 278 277 277 277 277 277 277 277 277 276 276 276 275 276 276 276 276 277 278 278 277 277 277 277 279 279 280 280 280 281 282 282 283 283 283 284 284 284
283 281 279 273 270 268 268 270 272 275 278 280 278 277 276 276 274 273 270 271 267 271 271 267 265 272 276 277 277 276 276 276 276 276 277 277 276 275 276 276 276 277 277 277 277 277 277 277 277 277 277 277 277 277 277 276 275 274 274 274 275 275 276 276 276 276 276 277 277 277 277 277 278 278 279 280 280 281 282 283 283 283 284 284 284 284
283 283 281 278 275 273 275 277 281 282 279 275 278 278 275 276 276 275 275 271 268 269 267 270 270 270 271 273 274 274 275 274 274 275 275 275 276 276 276 276 276 276 277 276 276 276 276 276 276 276 276 276 276 276 276 275 274 274 274 274 274 275 275 276 275 275 275 275 275 275 275 276 277 278 279 280 281 282 282 283 283 283 283 284 284 284
282 281 281 279 278 278 279 279 281 281 277 278 277 276 276 274 274 272 270 268 273 269 264 271 271 268 269 272 273 274 274 274 274 274 275 275 275 275 275 276 277 276 276 276 276 275 275 275 276 276 276 275 275 276 275 274 273 272 273 273 273 274 275 275 274 273 273 273 274 274 275 276 277 279 279 280 281 281 282 283 282 283 284 284 284 284
279 279 279 277 277 279 280 280 281 280 279 277 277 276 275 275 274 271 271 273 272 268 265 270 271 268 270 272 273 274 274 273 274 274 275 275 276 275 275 274 275 275 275 275 275 275 275 275 275 275 275 275 275 274 273 273 272 272 272 272 273 273 274 274 273 273 273 274 274 275 276 277 278 279 279 280 281 281 282 282 283 283 283 284 284 284
279 280 279 278 276 277 279 280 280 278 277 277 276 276 276 275 274 274 273 274 272 270 271 270 270 270 272 273 274 274 276 275 275 275 275 275 274 274 274 274 274 274 274 274 274 274 274 274 275 274 274 274 274 274 273 273 272 272 271 271 272 273 273 273 272 272 273 273 274 275 276 277 277 278 279 279 280 280 281 281 282 282 282 283 283 283
279 278 277 278 275 277 280 279 279 278 276 274 275 276 276 275 275 274 273 272 272 271 271 271 269 269 274 276 275 275 275 275 275 274 274 274 274 274 273 273 274 273 274 274 274 274 274 274 274 274 274 273 274 273 272 271 271 271 271 271 272 272 272 272 272 272 272 272 273 275 275 276 276 277 277 278 278 279 280 280 281 281 281 282 283 283
280 278 277 277 274 276 279 278 277 277 274 274 274 275 275 273 270 272 270 272 270 268 269 269 267 268 273 275 275 275 275 274 273 273 273 273 274 273 273 273 273 273 273 273 273 274 274 274 273 273 273 273 273 273 272 272 271 271 270 271 271 271 272 271 272 272 272 272 273 274 275 275 276 276 276 277 277 278 279 280 280 280 281 281 281 282
278 278 277 275 272 274 278 277 276 275 273 271 272 275 274 274 274 273 273 273 272 272 268 265 266 272 273 274 272 273 273 273 273 273 273 273 274 274 273 273 273 273 273 273 273 273 273 273 273 273 273 273 273 271 271 271 270 270 270 270 271 271 271 271 271 271 271 272 273 274 274 274 274 275 275 276 277 277 278 279 279 280 280 280 281 282
275 278 277 277 271 273 276 276 276 273 268 270 277 278 275 272 272 270 270 271 272 273 270 272 272 274 273 272 271 272 272 272 273 274 275 274 273 273 273 273 273 273 273 273 273 273 273 273 273 273 273 273 273 272 272 272 270 270 271 271 271 270 270 270 270 270 271 271 272 273 273 273 273 274 275 275 276 276 277 278 279 280 280 281 281 281
279 279 277 275 272 271 274 274 272 269 269 275 278 278 276 275 274 272 272 272 273 273 273 272 272 272 273 273 273 273 274 274 275 274 275 275 274 273 273 273 273 273 273 273 272 272 272 273 273 273 272 272 272 272 271 270 270 270 270 270 269 269 269 269 269 270 270 271 272 272 272 272 272 273 274 274 275 275 276 277 279 280 280 280 280 280
278 277 277 276 275 275 273 271 264 268 275 277 277 276 278 276 275 273 270 272 273 273 273 271 272 273 273 273 274 274 274 274 274 275 275 275 275 274 273 272 273 273 272 273 272 272 272 272 272 272 272 272 271 271 271 270 270 270 269 270 269 269 269 269 269 269 270 270 271 271 272 271 272 273 273 274 274 275 276 277 279 279 280 280 280 281
280 279 278 273 277 268 270 269 269 275 275 275 274 273 273 270 271 269 264 268 273 274 273 271 272 272 273 273 273 273 274 274 272 272 275 275 274 274 274 273 274 273 273 273 273 272 273 273 272 272 272 271 270 270 270 270 270 269 269 268 268 268 268 268 268 269 269 270 270 271 271 271 271 272 273 273 273 274 275 276 278 279 281 280 280 281
281 276 277 273 273 273 269 268 269 269 267 271 273 276 277 276 275 274 270 267 274 274 274 273 271 272 272 272 273 273 273 270 267 269 273 274 274 274 274 275 274 274 273 273 273 273 273 273 272 272 271 270 269 269 270 269 269 268 268 267 267 267 267 267 268 269 269 269 270 270 271 271 272 272 272 272 272 273 274 276 277 279 281 281 281 281
280 280 278 274 272 271 269 266 267 265 270 273 273 275 276 276 275 274 269 265 274 274 274 273 271 272 272 272 272 272 269 265 265 269 272 273 274 274 273 273 273 273 273 273 273 272 272 272 272 271 270 269 268 269 269 269 268 267 266 267 267 267 267 267 268 268 269 269 270 270 271 271 271 272 272 272 272 273 274 275 276 279 281 281 281 281
277 276 276 274 271 272 270 267 265 268 267 272 274 275 276 276 275 271 262 264 272 273 274 273 272 272 272 272 272 271 268 263 265 269 273 274 274 274 273 272 272 272 272 273 273 272 272 271 271 270 269 268 268 269 269 268 268 267 266 266 267 266 266 267 268 269 269 269 270 270 270 271 271 271 272 271 272 273 274 276 277 279 280 281 282 282
275 275 275 271 271 272 271 270 272 272 276 275 275 276 276 276 273 265 260 266 273 274 274 274 273 273 273 272 272 268 270 271 271 273 274 274 273 273 273 273 273 273 272 272 271 273 271 270 270 269 268 268 268 268 268 267 266 266 266 266 266 266 267 268 269 269 269 269 269 270 270 271 271 271 271 272 272 273 275 276 277 279 280 281 281 282
277 275 274 274 271 269 270 268 269 272 273 274 277 276 276 271 262 261 270 275 274 273 274 274 273 273 273 272 272 271 272 273 273 273 273 273 272 272 273 272 272 272 272 272 272 271 270 269 269 268 268 268 268 268 268 267 265 265 265 265 265 266 268 268 268 269 269 269 269 269 270 270 271 271 271 272 272 273 274 276 277 279 280 281 281 281
274 270 272 272 272 273 272 268 266 262 272 277 276 275 276 266 268 273 274 275 275 274 274 273 273 273 273 272 273 272 272 272 272 272 272 272 272 271 271 271 271 270 270 270 270 271 270 268 267 267 267 268 268 268 267 266 265 265 265 265 266 267 268 268 268 268 268 268 268 269 269 270 270 270 271 271 272 273 274 275 277 278 280 280 280 281
277 272 272 274 273 268 268 265 264 272 276 278 276 269 272 274 275 275 274 272 274 275 274 273 273 274 273 272 272 272 272 271 272 272 271 271 272 272 271 271 271 271 270 271 270 270 269 268 267 267 267 267 267 267 267 266 264 264 264 265 267 267 268 268 268 268 267 268 268 268 269 269 270 270 271 272 272 273 274 275 276 278 278 279 280 280
278 275 276 271 275 270 269 272 276 277 278 279 277 276 276 277 277 277 275 274 273 274 275 273 273 274 274 273 272 272 271 271 271 271 271 271 271 271 270 270 270 270 270 269 269 269 268 267 266 266 266 266 266 266 266 266 265 264 264 265 267 267 267 267 267 267 267 267 267 268 268 269 269 270 271 272 273 273 273 274 276 276 277 278 279 279
279 279 279 276 275 278 279 279 280 279 277 277 278 278 276 276 277 277 275 274 275 275 275 273 274 274 273 273 271 271 271 271 271 271 270 271 270 270 271 270 270 270 270 269 269 268 267 267 266 266 265 265 266 266 266 266 265 264 264 266 266 266 267 267 266 266 266 267 267 267 268 268 269 270 271 272 273 273 274 274 275 276 277 278 279 278
278 278 277 273 277 273 270 278 277 276 277 276 276 278 278 278 277 277 275 275 275 275 275 275 274 274 273 273 272 271 271 271 270 270 271 270 270 270 270 269 269 269 269 268 268 268 266 266 265 265 264 264 265 265 265 265 265 265 266 266 266 266 266 266 266 265 266 266 266 267 268 268 269 270 271 272 273 273 274 275 275 276 276 277 278 276
275 278 275 276 275 273 273 276 277 277 277 277 277 276 275 276 276 277 276 276 276 276 276 275 275 273 274 272 272 271 270 271 270 270 270 269 269 269 269 269 269 269 269 269 268 267 266 265 265 264 264 263 264 265 265 265 265 265 266 266 266 266 265 265 265 265 265 266 266 267 268 268 270 270 270 271 272 272 273 274 275 275 276 277 277 275
277 277 272 275 272 274 277 278 277 277 277 277 277 277 277 276 276 276 276 276 276 275 275 275 275 274 273 272 272 271 270 270 270 270 269 269 269 269 269 269 269 269 268 267 267 266 265 265 264 264 263 263 264 264 264 264 265 265 265 265 265 265 264 264 265 265 265 265 266 266 268 268 269 269 270 270 271 273 273 274 275 275 276 279 278 277
277 274 277 275 272 272 272 274 275 269 269 273 276 276 276 277 276 275 276 275 275 274 274 273 273 274 273 273 272 271 270 270 270 270 269 269 269 269 269 269 269 268 267 267 267 266 265 265 264 264 263 263 264 264 264 264 264 265 265 265 264 264 264 264 264 264 264 265 265 266 267 267 268 269 270 270 271 271 273 276 278 278 278 278 278 279
276 276 275 272 272 271 275 276 276 275 275 275 276 277 277 277 276 275 275 274 274 275 274 273 272 272 272 272 273 272 271 270 270 270 269 268 269 269 269 269 267 267 266 266 265 265 265 264 264 263 263 263 263 263 264 264 264 264 264 264 264 264 264 264 263 263 263 264 265 266 266 267 268 269 269 270 271 272 272 273 276 279 280 279 278 278
Wind_Speed
5 10 9 6 5 7 7 6 5 4 5 7 7 7 9 10 9 12 10 4 5 8 6 1 3 4 4 3 3 3 3 3 4 4 4 5 5 5 7 7 8 9 9 10 11 12 13 13 14 14 14 15 18 18 18 18 18 18 17 16 15 12 11 10 10 9 8 9 9 8 9 10 10 10 10 10 9 8 8 7 7 7 6 7 8 8
5 11 7 7 7 6 5 5 5 5 4 5 7 6 7 11 9 15 13 4 1 3 6 4 4 5 6 4 3 4 4 3 3 3 4 4 5 4 6 7 8 8 8 10 11 13 13 13 16 15 14 17 20 20 20 18 18 19 20 17 14 13 12 11 11 10 9 9 9 10 10 11 11 11 11 11 10 10 11 11 10 8 7 8 8 8
11 9 5 6 5 5 5 5 3 4 6 5 5 7 7 10 13 12 1 1 2 3 8 3 7 5 7 6 5 5 3 3 2 3 3 4 4 4 6 7 8 10 10 12 12 14 14 16 17 16 16 17 18 20 20 20 20 20 18 14 13 12 13 12 12 11 11 11 11 11 12 12 12 12 12 13 13 12 12 11 10 8 8 7 7 7
7 6 7 4 4 5 5 3 6 6 6 3 8 9 9 12 10 9 5 5 8 7 7 5 9 3 6 5 6 4 5 4 4 3 3 3 3 6 7 7 9 12 11 14 14 16 16 16 16 16 17 21 24 22 19 20 20 17 16 16 14 13 14 13 12 13 14 13 13 13 12 13 12 12 13 14 14 13 13 12 8 7 8 8 8 7
7 4 5 4 4 5 6 3 10 8 3 4 7 7 8 13 12 9 12 14 17 6 3 9 9 7 8 8 7 7 6 5 5 4 2 2 3 4 5 8 9 12 12 14 16 17 17 19 19 19 20 17 18 21 20 19 18 14 19 17 15 14 15 14 12 13 14 14 14 12 11 11 12 11 11 11 11 12 12 10 9 9 9 9 9 9
6 3 3 5 4 3 5 4 8 8 5 2 7 9 12 14 15 15 13 12 9 1 7 4 5 7 9 12 10 9 7 7 5 2 2 2 4 6 8 8 10 11 12 14 16 18 19 19 22 25 26 25 21 18 19 17 18 18 17 18 15 13 14 15 15 15 15 14 15 15 14 13 12 12 11 11 11 10 10 11 11 12 10 10 10 10
4 1 1 5 5 5 4 4 5 7 5 6 5 11 12 13 13 15 12 7 7 8 1 3 6 10 2 11 11 10 9 8 5 4 2 3 6 6 8 9 10 13 14 15 17 17 20 23 23 23 21 20 22 21 18 17 17 17 17 17 16 15 14 14 16 16 13 15 15 17 17 17 16 15 12 12 12 11 11 10 12 11 11 12 12 11
3 2 5 4 5 6 7 6 6 5 4 3 8 13 12 12 13 13 7 5 8 8 7 2 2 11 11 1 9 10 9 6 6 2 1 4 7 9 11 11 12 13 16 17 18 20 22 24 26 28 25 21 21 21 19 18 17 18 18 17 16 14 15 14 15 15 15 16 17 18 20 17 17 17 18 16 14 13 11 12 12 11 10 11 12 12
4 4 6 8 8 7 6 6 7 3 3 7 12 13 15 13 13 13 6 7 8 4 2 7 7 10 8 5 9 9 7 9 4 2 2 6 10 12 12 12 13 17 19 18 19 23 26 26 26 25 23 23 23 20 19 18 18 18 17 17 17 18 16 15 15 15 17 17 19 20 18 19 18 18 16 15 15 13 13 14 12 13 12 11 12 12
3 3 3 4 6 7 7 6 4 4 5 7 14 15 14 13 11 10 6 7 5 2 5 4 11 10 11 13 2 8 5 4 1 3 4 8 12 12 12 15 17 19 18 18 21 23 25 26 24 22 23 23 21 20 20 21 19 19 19 20 21 20 16 14 16 17 20 21 20 20 20 21 18 16 15 15 16 14 14 15 14 12 12 11 11 12
3 2 2 2 4 4 7 7 4 8 9 13 15 14 13 7 8 6 7 6 6 5 6 9 10 8 11 11 6 2 1 2 2 3 6 10 12 14 14 17 18 17 19 20 23 23 25 25 24 24 24 24 24 21 22 21 20 20 20 20 21 19 16 17 20 20 22 21 20 18 19 20 20 19 18 17 17 15 14 14 14 13 12 12 11 10
3 3 3 2 2 6 7 7 6 6 9 9 9 13 13 5 5 5 3 4 5 7 8 12 14 11 11 9 5 4 3 3 2 5 10 13 13 14 14 15 17 18 19 21 22 24 26 26 25 24 25 25 24 24 22 20 20 19 19 18 19 18 19 20 21 22 21 21 19 19 19 19 18 18 16 17 18 17 16 16 15 13 11 12 11 11
5 4 2 5 3 4 6 10 5 5 7 6 12 11 11 9 7 5 7 8 8 10 9 16 18 12 8 6 6 6 4 2 0 4 7 9 12 13 15 18 17 19 21 23 27 26 23 22 23 24 23 23 23 21 23 22 20 19 18 18 19 21 23 23 22 22 23 20 19 18 18 18 16 17 17 17 17 16 15 14 14 13 12 12 11 11
3 1 3 4 1 2 6 6 8 3 7 8 11 10 10 10 9 9 9 7 10 12 13 14 13 10 13 5 3 3 3 3 2 4 7 10 14 16 19 20 21 20 22 23 22 22 22 22 23 23 23 23 21 23 22 22 18 16 16 20 23 26 23 22 21 21 20 20 19 19 18 17 16 16 15 15 16 15 14 13 14 14 13 12 12 12
3 2 3 4 4 4 3 5 5 5 6 7 4 9 6 5 4 8 8 12 13 15 19 16 7 5 15 4 1 5 5 4 3 7 10 13 17 20 23 24 24 25 26 25 24 23 24 24 25 23 23 22 22 22 21 17 18 19 21 21 22 23 22 21 19 18 19 18 19 18 18 17 15 15 15 15 14 15 15 14 14 14 13 12 12 12
3 5 3 3 2 3 4 1 2 5 5 4 4 4 6 5 5 7 8 11 12 15 14 7 5 7 10 6 5 3 4 7 9 13 16 18 19 22 21 23 24 25 25 24 24 24 25 25 25 23 22 22 20 20 16 19 20 21 21 21 21 21 21 20 20 19 20 21 19 18 18 17 17 14 14 14 14 14 15 15 15 15 14 13 13 13
7 0 3 4 2 4 4 1 2 4 4 8 5 7 9 7 6 8 11 10 14 10 10 8 10 11 13 3 5 4 6 13 16 20 24 20 20 20 21 21 23 26 25 24 24 24 25 24 24 22 23 20 19 19 20 21 22 22 22 19 21 23 22 22 23 23 21 19 21 20 19 18 17 17 16 15 17 17 16 15 15 14 14 15 13 13
3 9 5 1 2 3 1 2 5 4 1 3 3 7 13 5 3 2 9 10 9 11 13 10 14 16 12 10 5 7 16 18 20 24 18 20 18 22 23 26 28 27 27 27 26 25 25 23 24 24 23 21 22 22 23 24 23 21 19 22 24 23 23 22 21 21 19 20 20 19 19 18 18 17 17 16 16 16 15 15 15 14 14 14 13 12
2 6 2 5 3 5 1 2 5 5 8 7 4 3 6 3 3 4 6 9 12 11 11 14 15 13 11 10 9 16 18 22 25 26 20 21 20 23 25 29 30 29 26 25 25 24 23 23 23 24 24 24 24 25 24 24 21 21 21 23 23 22 21 22 19 19 18 18 16 15 17 18 18 17 17 16 16 15 16 16 15 15 16 15 15 14
3 2 2 5 6 3 5 4 5 4 8 9 6 4 4 3 3 8 4 5 7 14 14 16 14 11 7 8 13 15 18 23 28 27 16 18 23 26 28 28 26 26 25 26 25 24 24 24 24 23 24 26 27 25 22 21 20 24 23 23 21 20 21 23 23 21 19 17 18 20 19 19 18 17 17 18 17 16 17 16 15 14 13 14 13 12
2 2 5 5 12 6 2 3 5 5 4 2 5 4 5 2 2 7 5 4 6 11 11 15 17 10 11 13 12 14 21 22 24 21 21 23 27 30 29 27 28 27 26 26 25 25 25 23 22 23 24 25 24 22 22 22 23 22 21 21 20 24 25 24 23 21 19 18 18 20 20 19 18 19 19 20 19 18 16 15 14 13 12 11 12 11
3 4 6 11 9 7 3 3 3 6 5 2 3 3 4 5 7 8 8 4 1 7 12 13 17 15 13 7 10 16 20 22 23 24 23 26 28 27 29 32 29 27 26 26 27 26 25 22 22 24 25 23 22 24 25 24 22 20 18 18 24 27 27 29 26 23 23 20 18 21 19 19 19 19 18 19 19 17 16 15 14 14 12 12 11 11
2 4 5 7 9 6 3 3 3 5 6 5 3 1 1 2 4 3 10 10 8 8 12 13 16 18 6 3 9 17 21 23 22 22 27 28 27 28 30 30 29 27 28 27 27 26 23 21 23 25 26 25 25 22 20 19 19 19 23 26 25 26 27 24 22 20 19 18 18 20 20 19 18 18 20 19 16 16 16 15 14 12 13 12 11 11
1 2 6 7 7 7 5 5 7 6 6 6 4 4 3 3 1 3 5 8 10 12 10 12 14 15 11 12 17 20 23 22 19 19 22 23 26 27 29 31 31 28 28 27 25 26 23 24 25 23 23 24 23 22 22 21 19 21 23 24 24 25 22 21 21 20 19 18 18 19 19 19 18 18 16 15 13 16 15 13 12 11 13 13 11 13
3 2 5 8 7 3 3 4 5 4 3 2 3 3 2 3 2 4 4 3 6 9 11 12 20 16 15 17 21 22 23 23 23 26 27 28 25 25 28 29 28 29 27 27 28 26 26 27 25 23 24 23 22 23 23 23 22 23 23 21 23 22 21 19 19 20 19 17 18 18 18 19 18 17 16 16 15 16 15 14 14 12 12 13 14 13
3 4 4 6 9 11 11 11 10 10 10 8 8 5 4 3 4 3 6 7 11 9 16 12 17 20 25 28 28 25 24 22 23 28 26 24 25 26 28 30 29 28 27 29 27 28 30 25 21 24 24 22 24 23 20 17 18 20 24 24 21 20 20 20 18 19 20 19 19 18 20 19 17 18 18 17 16 16 16 15 13 13 14 14 14 14
2 2 1 2 2 7 10 11 13 12 12 9 10 4 3 4 1 2 5 9 12 16 15 15 15 25 32 31 29 28 23 24 28 26 27 27 27 29 31 29 28 27 28 28 27 27 28 27 29 27 25 23 23 22 15 18 20 25 28 25 22 20 20 19 18 19 21 21 20 19 19 18 17 16 16 16 15 15 14 13 15 15 15 14 14 14
2 3 1 3 4 10 14 15 14 12 13 15 11 7 5 3 4 3 5 10 12 13 17 12 21 23 28 29 29 28 26 26 27 28 29 26 26 26 28 30 31 29 28 28 30 31 30 31 29 28 26 27 24 20 18 19 20 21 24 23 21 20 19 16 19 21 21 20 19 19 18 16 17 17 16 15 14 13 15 13 14 14 14 14 14 13
2 3 2 1 9 9 14 14 13 11 11 11 10 9 6 3 5 7 11 10 10 10 17 27 28 27 26 26 27 26 27 31 32 27 25 27 27 29 31 31 30 30 29 29 29 29 31 29 28 29 28 27 27 19 18 20 22 24 21 20 21 20 19 19 21 22 21 20 19 18 17 16 15 15 17 15 13 13 14 14 14 13 13 13 13 11
2 1 2 1 10 14 13 10 7 10 10 9 7 7 3 4 6 9 14 12 13 16 20 23 26 28 24 22 24 26 29 29 25 25 25 26 26 29 32 31 31 30 30 31 31 31 29 29 28 29 30 27 24 21 21 22 25 27 24 22 21 20 19 20 22 21 20 20 19 18 18 18 16 15 16 17 15 14 15 15 14 14 14 14 13 14
3 1 3 2 5 9 4 5 6 10 9 9 4 4 3 4 8 9 11 14 15 17 18 22 26 24 16 18 23 26 26 26 28 29 29 28 30 33 31 31 29 29 30 31 32 31 30 29 29 30 27 28 26 20 19 20 20 21 22 21 20 19 20 21 21 20 19 19 19 19 18 17 16 15 16 16 16 15 15 15 14 14 15 15 14 14
1 2 3 1 6 6 2 12 15 9 2 3 4 5 4 6 7 7 8 12 13 19 24 23 19 15 15 20 24 26 28 31 31 32 30 28 31 29 28 28 28 28 30 29 29 31 31 31 30 29 30 27 23 21 23 26 26 24 22 20 20 21 21 21 20 20 19 19 19 19 19 17 18 17 17 16 16 17 17 15 15 15 15 15 15 15
2 4 4 4 6 6 9 10 18 4 3 4 6 5 3 6 9 13 14 14 14 18 17 15 16 17 21 22 27 29 30 34 33 27 29 32 29 26 26 28 29 29 28 28 29 30 30 28 27 31 27 23 21 20 22 23 24 23 21 21 20 20 21 20 19 19 20 19 19 19 18 18 19 19 18 17 17 16 17 16 15 15 15 15 14 14
1 3 2 2 4 7 13 14 14 5 6 2 6 5 3 6 10 15 16 21 21 14 12 15 18 19 23 25 28 31 33 31 29 29 27 25 26 27 29 28 30 29 29 29 28 27 28 28 27 24 25 25 25 25 26 24 23 22 21 20 20 21 20 20 19 19 19 19 19 18 18 18 19 19 18 18 18 17 17 17 16 15 14 13 14 14
2 3 2 1 3 7 10 11 8 4 5 6 6 5 4 7 10 15 20 17 15 16 18 17 17 22 25 25 26 28 30 31 31 30 28 25 27 29 31 32 30 30 31 29 30 31 30 29 26 26 27 27 27 27 26 25 24 22 22 22 23 21 20 19 20 19 18 18 18 18 18 18 19 19 18 18 18 17 17 17 16 15 14 13 13 14
4 3 3 2 3 6 5 6 6 7 4 5 6 3 3 8 11 17 19 18 16 17 13 14 21 23 25 26 26 26 27 31 32 26 23 24 28 30 32 30 30 30 29 28 30 30 29 28 28 29 28 24 24 23 24 23 23 24 23 22 21 20 20 20 19 19 18 19 18 18 18 18 19 18 18 19 18 18 18 17 16 15 14 14 13 13
3 2 1 4 1 4 7 7 9 14 8 7 2 5 7 12 15 14 17 19 17 9 9 18 22 24 27 26 27 27 29 27 24 20 21 26 32 33 32 31 31 29 29 29 28 29 30 29 29 29 24 23 22 25 21 23 23 23 22 22 21 21 20 20 19 19 19 19 19 18 18 19 19 18 18 19 19 18 18 17 17 15 12 13 13 13
3 2 3 3 1 1 6 9 8 5 5 3 7 3 7 9 11 13 14 18 7 6 17 18 24 28 28 27 28 28 28 25 22 21 23 29 32 32 31 31 31 31 29 29 29 29 26 27 27 23 21 26 27 24 24 23 23 24 23 22 21 21 20 19 19 19 19 19 19 19 19 19 18 18 19 18 18 18 18 17 15 15 13 11 11 13
2 2 1 2 3 4 4 5 6 7 5 6 3 6 9 11 10 15 11 12 5 17 19 22 25 27 27 28 29 28 20 17 19 22 25 30 30 30 29 28 29 29 29 28 30 31 31 29 26 24 27 28 27 25 24 25 25 23 22 21 21 20 19 19 19 19 19 20 20 20 19 18 19 18 18 18 17 16 17 16 15 15 13 12 12 12
2 0 2 3 3 4 5 5 5 4 7 5 7 10 14 12 15 11 10 7 13 19 21 23 26 26 26 26 24 22 19 20 24 24 27 30 30 28 27 29 29 30 30 31 28 28 29 25 27 29 28 27 26 26 26 25 22 23 23 21 20 20 19 20 19 19 19 19 20 19 18 18 18 18 18 17 18 17 16 15 15 15 15 14 13 13
2 2 2 4 5 5 6 7 6 5 3 6 7 11 14 14 12 8 11 13 17 20 22 22 22 23 22 23 19 19 18 20 23 27 29 29 29 29 29 27 28 27 29 29 30 29 25 26 26 24 25 25 27 26 23 22 22 23 22 21 20 20 20 20 19 19 19 18 19 20 20 18 17 19 20 18 17 16 16 15 14 15 14 14 14 13
2 2 3 3 4 5 4 6 7 6 5 5 8 13 8 9 6 9 11 15 18 20 20 20 22 21 21 21 19 18 21 26 27 27 27 28 28 28 27 29 28 30 29 27 28 28 27 26 26 27 28 25 24 23 22 23 23 21 21 20 21 22 20 20 19 19 19 20 20 20 20 20 19 19 17 17 16 17 17 15 15 15 14 13 14 16
1 0 4 3 3 5 2 6 7 5 2 8 13 9 5 7 9 10 14 17 17 18 20 20 17 19 20 20 21 22 25 26 25 26 27 27 27 28 29 28 29 29 29 31 29 29 26 25 26 25 25 23 25 23 23 23 23 21 20 21 22 20 20 20 19 19 20 20 20 20 20 20 21 19 16 17 18 17 17 15 15 16 15 15 15 16
2 2 3 1 3 5 5 2 4 4 11 11 8 8 9 9 10 11 12 15 14 15 16 15 15 16 19 20 21 22 22 24 23 23 25 25 27 27 26 28 27 28 28 27 27 28 28 26 26 26 26 24 22 22 22 22 21 20 21 22 20 20 19 19 19 20 19 19 19 20 20 20 20 19 17 17 17 16 16 16 16 15 13 13 14 11
8 2 1 4 1 3 5 7 10 12 11 9 8 10 12 12 11 11 12 14 15 13 13 13 16 18 19 21 21 21 20 21 22 24 23 23 25 25 25 27 27 26 26 28 28 27 26 26 27 25 25 24 25 23 22 20 20 22 22 21 20 20 20 19 19 19 19 19 19 19 19 18 18 18 17 16 15 15 15 16 16 14 13 13 12 8
4 2 2 3 4 8 13 15 13 10 9 10 9 9 10 10 10 11 13 13 12 14 13 14 17 18 19 19 19 18 18 21 23 22 23 23 22 24 24 25 24 25 27 26 26 28 27 27 27 26 27 27 26 23 21 20 19 21 21 20 20 20 19 19 18 19 20 19 19 20 20 20 19 18 17 17 14 14 13 13 13 13 13 11 10 7
5 2 3 3 6 6 5 1 10 12 10 9 11 10 8 8 10 11 12 12 14 15 15 15 16 18 18 18 19 19 21 22 22 22 22 21 22 24 25 24 25 26 26 27 28 27 26 25 23 23 25 27 25 23 22 21 19 19 19 20 20 19 18 18 20 21 19 19 19 19 17 18 16 16 16 16 14 13 12 12 11 12 12 11 9 7
2 4 5 8 9 8 12 13 11 6 9 13 10 8 10 11 13 13 12 13 14 16 16 17 17 17 17 18 19 19 20 21 22 22 21 21 21 23 24 25 26 26 26 26 27 27 25 23 24 24 26 24 23 22 21 20 19 19 20 19 19 18 19 20 20 20 20 21 19 16 16 16 21 20 15 15 14 13 14 13 11 11 11 11 7 6
4 5 3 3 6 10 13 11 9 13 12 4 3 9 10 11 13 15 15 15 16 18 18 18 17 18 18 18 19 18 19 20 21 22 22 20 22 22 23 26 26 25 26 27 26 25 23 24 25 26 27 26 23 22 20 20 20 19 19 19 19 18 20 20 21 20 20 19 17 16 16 15 15 14 14 15 15 13 11 12 12 12 12 9 4 5
2 4 3 4 7 7 7 10 11 10 9 9 12 12 13 14 14 15 15 16 17 18 17 18 19 19 19 18 18 17 18 18 20 21 23 23 23 24 26 26 27 28 27 25 23 24 24 24 24 25 25 23 23 22 21 21 19 18 18 19 18 19 20 21 20 19 19 17 17 16 15 14 14 13 13 13 14 15 14 17 18 13 12 8 5 8
5 4 2 4 5 9 10 10 7 8 12 12 14 14 14 14 13 15 15 16 17 16 16 17 19 19 19 19 16 17 18 19 21 21 22 21 22 22 25 26 26 27 26 25 24 24 25 25 25 26 25 23 22 21 21 20 19 18 19 19 18 19 19 20 18 18 18 17 16 17 17 15 15 14 13 12 12 12 13 13 16 18 12 3 6 6
Wind_Direction
336 56 39 29 358 349 5 4 339 303 305 299 297 305 326 316 315 329 335 76 24 326 290 118 158 164 159 150 140 121 120 111 93 80 59 59 40 38 25 22 15 9 9 358 356 357 354 351 349 346 342 338 336 335 333 330 330 329 321 314 312 316 317 319 318 319 325 325 325 324 323 318 312 309 303 297 293 297 294 268 234 215 218 233 233 236
32 59 37 17 351 334 333 343 330 285 244 280 308 339 334 340 328 321 310 80 66 13 286 187 185 189 168 156 163 162 169 119 97 71 66 54 39 27 20 14 6 5 355 350 351 350 349 347 345 343 341 338 336 334 331 328 326 325 320 309 308 312 316 315 313 315 316 321 321 322 320 317 315 312 306 299 292 296 293 280 270 264 237 216 211 212
46 48 19 3 344 317 279 292 314 291 283 255 339 351 338 342 326 302 231 99 190 277 282 177 261 202 178 171 166 177 159 120 83 69 73 39 28 16 12 3 357 351 349 346 343 345 343 344 343 344 340 339 336 331 329 327 324 322 319 310 305 310 311 312 311 308 307 308 311 316 310 309 308 304 302 300 297 287 277 273 271 264 260 258 254 236
66 43 13 335 308 303 276 272 308 262 240 312 13 359 347 329 335 322 309 194 283 286 271 309 285 220 165 169 182 177 166 147 125 135 89 38 24 9 4 0 350 349 342 343 343 341 340 340 339 338 335 337 334 327 323 324 323 321 318 313 308 309 307 307 309 304 299 302 306 300 296 296 295 299 299 296 291 286 278 272 267 279 281 266 259 249
74 38 350 315 276 290 321 344 8 345 318 117 32 360 326 325 311 288 297 306 293 271 292 254 266 222 184 194 194 181 169 171 167 162 137 106 15 10 346 354 352 346 339 336 337 339 337 337 336 333 331 328 331 329 324 322 322 317 315 310 309 310 310 304 303 307 312 307 301 300 296 296 295 290 289 290 285 283 287 285 280 275 281 288 277 269
78 52 338 296 302 321 326 18 26 341 319 51 95 355 310 301 304 296 293 312 306 266 173 266 308 332 180 202 194 164 177 183 177 197 149 359 6 357 345 344 342 342 341 337 334 335 335 331 330 330 329 328 327 329 326 320 316 315 311 307 303 304 303 302 297 298 302 305 305 308 308 303 300 296 294 288 280 274 271 278 289 293 284 277 279 274
35 76 279 326 327 300 328 47 39 338 326 295 355 327 299 295 290 291 301 313 318 323 72 171 315 318 282 198 189 171 184 175 176 177 326 353 352 344 341 338 338 341 339 335 332 331 331 331 329 329 332 333 329 325 322 317 314 312 310 309 311 311 306 299 299 305 306 305 305 303 303 301 297 291 285 284 280 269 268 266 268 271 277 281 283 281
328 29 333 320 327 8 15 5 29 18 309 314 351 317 299 293 291 289 299 270 267 296 283 248 291 323 323 316 170 164 178 175 182 268 349 1 356 352 344 349 346 338 336 332 330 330 331 330 330 328 326 326 324 321 319 317 314 312 310 309 307 307 306 304 303 302 306 304 305 304 301 297 295 293 288 283 283 281 273 270 266 265 262 259 262 271
34 354 10 0 354 24 12 343 318 302 284 302 319 310 295 285 280 282 271 275 294 309 262 176 23 318 317 359 136 157 199 193 210 317 323 355 355 355 355 348 340 339 336 334 331 331 330 328 326 324 323 323 320 320 319 318 315 313 311 310 306 306 308 307 307 308 304 303 302 299 297 296 297 296 290 289 287 283 274 270 270 272 272 270 262 258
59 15 9 313 354 6 332 312 275 246 289 321 307 293 271 259 259 255 270 269 300 280 303 19 2 328 303 309 227 168 237 226 76 322 350 348 353 353 345 339 339 338 337 333 330 327 325 324 323 323 323 322 323 321 318 315 314 313 313 311 312 311 311 310 312 308 304 303 303 301 299 295 293 293 289 288 287 286 287 281 275 271 271 267 267 268
108 89 345 314 31 318 293 298 258 226 249 287 293 301 313 253 226 226 243 260 285 276 346 16 359 347 306 305 349 310 90 79 333 328 348 350 349 347 344 344 340 333 331 332 329 326 324 325 324 326 323 322 320 319 317 316 316 314 313 311 311 313 312 315 310 306 304 304 304 300 298 294 293 290 291 288 286 286 283 281 281 279 278 274 270 264
165 175 192 109 226 299 246 282 192 243 258 288 329 338 327 341 310 246 287 291 298 309 344 352 339 331 291 303 83 89 139 144 60 353 347 342 340 340 341 336 334 335 334 332 327 323 322 324 325 326 322 322 321 319 319 316 316 316 315 314 314 314 315 309 306 305 305 308 305 301 297 296 293 291 288 288 288 291 287 283 281 280 277 276 271 268
173 101 82 142 212 345 337 308 143 210 267 349 348 349 354 342 342 343 341 335 332 317 338 335 340 318 270 350 98 125 143 143 351 345 330 337 339 341 339 335 335 338 333 329 326 323 326 329 328 323 322 324 323 321 320 319 318 318 319 319 312 307 305 304 304 306 308 308 307 302 300 294 291 288 288 285 286 287 284 281 281 281 280 277 278 273
110 98 146 142 138 38 326 337 355 332 354 5 5 357 360 351 355 329 329 316 307 303 318 318 335 275 298 346 89 122 114 29 49 303 329 349 342 341 338 341 341 332 328 324 320 324 327 326 326 327 327 326 324 323 323 322 323 326 321 311 305 304 305 308 310 312 314 310 307 305 301 296 291 289 287 287 284 282 282 283 280 280 279 281 275 277
310 191 103 357 5 10 347 25 348 310 331 23 12 12 359 345 335 312 320 327 312 304 310 313 294 347 315 45 28 77 50 343 1 334 342 345 342 343 344 340 331 329 329 330 330 330 331 330 330 328 327 327 326 324 324 326 323 322 315 312 310 309 316 322 323 314 307 304 301 298 296 295 293 290 289 286 284 283 282 279 276 276 279 276 278 275
261 265 77 70 58 335 35 67 262 311 237 73 2 6 355 349 327 279 307 299 308 309 305 317 315 322 318 78 79 72 344 328 341 338 335 333 337 339 336 334 331 330 329 331 330 330 329 329 327 327 326 327 326 330 329 320 315 316 313 311 315 321 322 313 306 299 298 297 296 291 291 289 289 288 289 289 286 285 283 283 279 277 274 275 273 275
318 137 124 100 25 41 52 306 15 291 351 335 342 1 334 326 262 264 282 290 301 289 285 328 304 305 312 174 116 144 347 334 331 324 329 337 335 340 337 335 332 331 331 331 327 325 325 327 328 326 325 324 330 325 320 313 316 317 317 322 320 312 307 302 303 302 301 299 298 293 289 290 289 291 291 292 292 290 287 284 280 276 276 275 276 273
316 298 306 98 68 100 13 49 50 33 275 317 4 360 304 209 231 279 315 310 309 307 297 315 316 309 318 324 146 331 350 340 329 329 337 332 339 335 335 331 332 330 328 325 323 326 329 329 326 325 323 323 322 323 322 320 318 317 320 313 309 307 307 309 306 304 307 302 297 297 295 292 290 291 291 291 293 294 291 289 285 283 280 281 277 277
316 301 162 139 357 129 184 178 114 64 29 74 44 12 344 4 315 325 317 318 321 305 305 304 308 293 297 302 353 337 334 335 335 333 333 335 336 335 332 331 331 329 326 326 328 326 327 329 327 325 324 325 325 324 321 318 323 323 314 310 310 311 314 313 313 311 308 307 306 303 299 295 293 290 291 294 293 290 286 284 285 284 284 282 284 281
258 280 322 166 322 117 181 214 337 24 99 118 159 58 31 292 335 323 333 300 297 303 320 307 311 299 306 334 332 325 329 336 333 330 333 333 332 332 331 330 328 328 327 327 326 327 328 330 326 325 327 326 325 323 321 323 320 316 315 315 317 322 324 321 317 317 313 310 309 306 301 294 290 292 294 294 295 290 285 283 282 283 281 282 280 278
300 255 275 331 321 275 246 27 342 341 333 321 2 22 7 3 277 259 246 207 308 314 303 312 306 293 305 322 322 324 338 338 336 336 330 327 327 327 329 330 330 329 326 324 324 328 329 328 328 327 326 324 321 320 321 321 323 322 320 322 327 324 318 314 308 304 299 296 295 292 288 290 292 295 295 295 293 288 284 283 282 280 279 279 275 274
291 239 285 310 326 347 72 43 17 8 6 55 1 39 358 350 345 347 334 107 53 304 302 308 289 287 296 312 329 334 336 333 334 332 329 329 329 330 329 331 328 324 324 323 325 327 325 325 328 330 325 323 322 323 321 324 324 327 328 325 318 313 310 309 306 303 299 295 295 295 289 284 286 285 289 291 291 287 286 283 281 281 279 276 275 271
317 302 290 295 304 314 104 95 36 57 85 73 37 86 97 83 342 320 318 319 319 284 294 282 291 281 307 93 340 334 330 331 331 330 329 326 326 327 329 327 325 324 326 325 325 326 324 327 328 326 323 322 323 322 326 326 324 324 321 318 318 315 312 315 314 312 311 307 304 302 299 293 286 288 291 290 287 286 284 284 283 281 279 277 277 272
269 270 296 292 306 111 94 101 128 137 130 106 97 107 80 7 339 286 270 312 297 299 301 310 285 282 307 326 324 325 328 328 333 340 334 328 324 325 325 325 323 324 326 325 323 324 325 327 327 325 325 323 323 323 324 325 324 324 322 321 319 317 318 323 320 317 313 311 313 316 315 310 304 297 293 290 288 285 286 283 280 276 271 270 269 270
297 59 323 321 333 320 172 172 182 196 229 299 123 107 90 136 198 237 257 198 274 298 305 307 296 291 303 317 316 324 327 330 331 334 332 329 324 324 325 326 326 325 324 324 324 327 327 327 327 327 324 324 323 323 318 319 325 326 324 320 318 313 316 319 319 316 316 317 318 316 313 308 304 300 296 292 288 282 280 277 274 275 278 279 276 273
269 319 353 1 345 332 332 332 331 326 322 326 128 132 139 126 27 328 308 308 290 303 310 291 282 288 305 312 317 325 331 330 332 331 329 326 325 325 324 326 326 325 325 325 326 328 329 327 326 325 325 323 325 322 325 331 333 328 323 320 318 315 315 318 321 319 316 315 314 314 312 309 306 301 297 292 286 284 279 278 283 282 278 274 272 270
292 291 298 44 310 291 292 298 303 312 303 301 301 134 143 101 160 270 286 290 300 309 295 275 282 305 307 314 318 324 331 331 330 331 331 329 327 325 325 324 323 325 326 326 327 329 327 325 326 327 325 326 324 325 325 324 325 327 325 321 321 317 313 316 321 322 318 314 314 313 311 308 305 300 297 293 288 287 291 292 289 284 280 280 277 276
250 247 122 19 261 264 279 285 293 300 291 296 308 316 131 155 167 211 247 283 305 306 295 290 308 307 305 311 315 321 330 332 331 332 329 327 326 325 320 319 322 325 327 326 327 328 328 325 324 324 326 326 327 327 323 328 328 328 323 319 319 316 315 319 321 318 314 310 307 307 307 307 305 304 298 295 293 295 291 283 282 281 282 281 279 274
325 295 107 34 282 279 276 275 275 280 289 296 299 307 276 180 185 248 258 273 292 292 292 304 310 306 305 309 315 323 330 328 328 329 329 328 324 320 322 321 324 326 326 326 325 326 326 324 323 325 326 325 324 325 327 327 327 330 327 322 318 316 319 323 320 317 316 314 311 310 310 308 305 303 303 299 295 286 287 285 286 287 285 284 282 278
276 232 56 238 288 288 281 267 273 283 291 287 281 273 241 198 260 283 290 290 284 277 280 293 302 301 303 309 319 325 324 323 325 328 327 326 325 324 323 323 324 328 329 328 326 325 323 323 324 325 326 326 327 321 324 326 329 326 324 320 317 319 323 323 319 317 316 315 315 316 316 316 315 312 311 308 307 307 305 304 303 300 295 290 286 282
339 22 93 314 283 292 269 247 263 282 302 289 264 191 214 267 285 282 294 300 300 285 291 301 303 300 310 320 320 319 319 324 326 328 328 327 328 328 325 325 326 328 327 326 324 323 324 325 325 325 324 326 325 327 334 334 331 328 321 317 319 321 322 320 316 316 316 315 314 314 315 317 316 316 315 317 313 308 307 302 299 296 294 293 290 286
297 308 139 255 311 309 27 334 318 330 24 282 203 204 247 294 303 311 305 305 308 305 308 306 300 300 312 325 317 317 321 325 326 329 329 327 324 321 322 325 327 327 326 324 324 324 324 324 324 324 325 328 326 324 325 328 327 321 320 319 319 322 322 318 316 316 316 313 312 313 316 316 316 315 315 314 314 311 305 300 295 292 291 291 290 288
338 308 319 350 309 293 330 336 320 10 140 159 210 218 265 293 319 319 306 303 302 305 301 306 299 311 324 325 323 324 327 326 327 327 326 321 319 322 325 328 329 328 326 324 324 323 323 324 324 324 326 330 331 333 335 333 327 323 319 319 321 323 320 317 316 316 314 313 312 315 317 317 316 314 312 313 311 308 303 299 295 290 287 284 286 287
280 280 343 3 312 289 320 325 304 256 286 25 89 95 126 339 329 316 316 315 313 312 299 302 307 318 323 328 328 324 324 323 323 322 322 320 324 324 328 331 329 328 326 325 324 325 324 322 321 324 328 328 327 327 325 326 323 320 319 318 321 321 318 317 316 314 314 312 312 315 317 317 315 311 311 312 310 306 302 298 294 291 287 285 283 281
268 325 338 193 284 304 309 322 333 330 330 116 139 123 36 346 318 311 305 299 302 310 314 316 319 323 324 324 321 319 320 318 320 320 320 321 326 328 327 327 329 328 326 326 326 325 323 321 323 325 325 324 325 324 323 323 323 321 321 321 319 318 317 318 315 313 313 311 312 314 315 315 313 310 311 310 307 304 299 297 297 294 289 287 285 283
357 350 337 268 296 287 316 348 330 319 78 150 155 111 349 320 329 324 310 312 319 320 324 321 323 322 322 321 321 321 319 318 318 318 322 326 332 331 329 327 326 326 325 325 324 322 323 325 325 323 323 324 327 326 324 323 324 321 320 320 317 318 319 317 315 313 313 312 312 313 314 313 311 308 310 310 308 305 302 299 294 293 293 287 282 277
339 287 350 330 61 335 315 293 272 282 261 135 106 34 4 346 338 335 314 306 315 317 347 326 322 323 323 323 322 322 323 318 315 319 328 329 330 330 326 324 325 323 323 322 322 322 322 323 324 324 325 329 329 327 325 323 323 322 321 321 320 319 318 317 314 313 314 312 313 313 313 311 308 308 309 308 307 303 302 302 301 297 291 285 283 279
360 11 0 309 308 291 305 309 310 316 318 96 104 12 12 336 322 311 305 297 311 1 343 333 326 327 324 324 325 326 324 319 319 324 329 328 326 324 324 322 321 321 321 321 322 323 324 324 323 325 333 329 326 326 325 325 324 323 321 321 320 318 316 316 314 315 314 313 314 312 312 309 308 308 307 305 302 300 298 295 293 292 286 282 281 282
115 106 237 242 277 320 308 300 299 309 343 127 355 2 346 342 327 313 296 283 20 355 339 337 328 327 325 324 323 325 326 320 318 321 325 324 323 323 322 322 322 320 321 322 324 324 325 324 324 329 330 327 324 326 327 325 324 322 322 320 319 318 316 315 316 316 315 315 313 311 309 309 308 306 305 303 299 296 295 293 293 291 288 283 281 279
124 323 308 281 295 288 301 292 303 237 260 318 354 348 343 345 325 301 285 291 352 339 334 329 325 323 322 322 324 325 328 322 320 318 322 320 319 321 323 321 321 321 321 322 323 324 323 324 327 327 326 326 327 327 326 326 325 324 321 320 318 317 317 317 318 315 314 313 311 310 309 308 306 305 304 302 300 297 295 295 293 291 291 292 287 285
319 301 292 302 297 300 283 286 291 302 58 47 6 344 349 334 302 303 310 310 332 326 326 325 321 321 321 323 328 322 321 316 313 315 318 318 320 320 321 321 320 320 322 323 323 324 324 327 326 325 327 327 325 325 327 328 326 323 321 319 318 318 318 317 316 315 314 312 311 311 309 308 306 305 304 301 299 298 298 297 294 292 292 291 291 287
210 295 212 221 301 312 277 276 282 262 148 248 7 350 351 333 360 315 302 320 319 320 322 323 319 318 323 323 323 318 315 317 316 319 320 322 322 320 320 321 321 322 322 321 322 325 326 326 325 325 325 325 326 330 329 327 324 323 321 320 318 318 318 318 317 315 313 312 312 311 309 308 306 305 303 301 299 298 298 298 296 293 293 295 293 289
99 306 297 301 321 295 302 290 320 315 181 15 352 328 17 339 292 307 314 312 320 317 319 320 317 320 326 321 319 316 318 323 323 322 324 322 324 322 324 323 323 324 323 323 325 327 327 326 326 326 325 326 327 327 328 327 324 322 321 319 319 319 318 317 316 315 315 314 312 310 309 307 306 307 304 300 299 298 299 300 300 298 298 295 291 289
124 280 317 4 132 309 306 290 239 262 326 345 342 324 321 307 312 313 314 308 312 316 318 316 314 319 322 318 315 318 317 318 323 325 324 323 324 324 321 324 323 320 321 322 322 324 328 326 324 323 324 327 329 329 328 327 323 322 321 320 323 320 318 317 316 316 315 313 312 310 308 306 306 304 301 300 300 301 301 300 299 301 299 299 298 300
167 235 36 275 144 159 265 272 285 300 302 317 330 315 310 314 320 316 313 309 312 313 316 311 315 317 319 316 317 320 320 321 322 323 322 319 323 323 322 323 320 320 322 322 323 326 327 325 324 324 325 327 327 328 327 326 323 322 322 324 323 321 319 317 317 316 315 314 312 309 307 306 303 303 301 300 300 300 301 299 300 301 300 301 302 305
133 214 307 310 270 260 263 262 277 293 309 310 312 309 310 310 310 320 313 310 310 313 317 317 316 316 315 318 318 322 320 320 321 320 321 321 318 319 321 321 320 321 321 322 324 327 326 323 322 324 325 326 328 327 326 324 324 323 323 323 322 320 319 318 317 316 316 313 311 310 308 305 305 303 301 302 299 297 295 294 296 297 298 300 301 309
180 186 197 242 286 315 295 55 317 313 315 311 308 310 306 314 322 319 313 309 311 315 315 315 315 313 316 319 322 322 321 320 320 320 320 318 319 320 321 321 322 324 324 324 325 325 325 324 321 322 326 326 328 327 325 324 324 322 322 323 322 321 321 319 318 316 315 314 312 310 308 306 305 307 308 305 302 300 297 295 295 295 297 298 301 310
163 137 257 250 269 262 278 298 308 335 315 303 303 307 316 324 321 318 313 313 312 314 315 316 318 316 322 322 325 324 321 320 320 322 320 319 319 321 320 320 321 323 326 325 323 323 322 323 324 324 325 325 326 327 325 324 324 323 324 324 324 324 321 318 319 318 316 314 313 310 309 307 306 307 305 305 305 307 306 301 297 297 295 298 307 311
106 127 259 248 260 265 280 295 332 320 302 282 259 309 323 321 318 314 315 314 314 314 316 317 320 319 322 320 321 322 320 319 321 321 320 317 319 320 321 322 322 324 325 324 323 323 323 323 321 322 325 324 324 323 323 324 324 325 327 328 325 321 318 319 320 318 317 315 313 309 307 306 304 302 301 302 302 295 289 291 297 297 292 293 292 299
161 248 268 294 288 288 311 328 342 327 315 307 310 317 318 317 313 312 312 313 315 315 316 317 317 318 317 318 320 320 319 320 321 322 321 321 316 316 322 324 324 324 322 321 322 320 320 320 323 324 324 322 323 324 324 324 324 327 330 326 323 320 319 320 321 321 319 316 312 309 308 307 305 301 299 300 301 304 301 291 290 289 292 298 308 313
227 273 314 280 289 288 304 313 321 297 291 294 307 313 312 312 310 308 311 312 312 312 315 316 315 315 315 317 320 319 320 320 320 323 321 317 316 318 323 323 323 321 319 321 320 321 323 323 323 323 323 323 323 323 324 324 325 330 329 323 321 320 319 321 324 322 317 315 312 310 310 308 307 305 302 297 295 296 300 305 308 307 294 272 337 326